Location: Eckley Miners' Village
(40.9930°N, 75.8630°W)
Time: 01:03:59
(UTC-04:00)

Vanguard 1 Rocket - Pass Details

Date: 07 March 2026
Orbit: 654 x 4213 km, 34.3° (Epoch: 18 April)

Event Time Altitude Azimuth Distance (km) Brightness Sun altitude
Rises 10:18:21 0° 250° (WSW) 2,981 9.9 36.8°
Reaches altitude 10° 10:20:29 10° 242° (WSW) 2,144 9.3 37.0°
Maximum altitude 10:24:56 43° 171° (S) 1,171 9.7 37.5°
Drops below altitude 10° 10:31:35 10° 102° (ESE) 3,193 10.9 38.2°
Sets 10:35:28 0° 96° (E) 4,667 11.5 38.6°
